Regional Weather Roundup
Issued by NWS Newport/Morehead, NC

Current Version | Previous Version | Text Only | Print | Product List | Glossary On
Versions: 1 2 3 4 5 6 7 8 9 10 11 12 13 14 15 16 17 18 19 20 21 22 23 24 25 26 27 28 29 30 31 32 33 34 35 36 37 38 39 40 41 42 43 44 45 46 47 48 49 50
000
ASUS42 KMHX 220710
RWRMHX
WEATHER ROUNDUP FOR EASTERN NORTH CAROLINA
NATIONAL WEATHER SERVICE NEWPORT/MOREHEAD CITY NC
300 AM EDT FRI AUG 22 2014

NOTE: "FAIR" INDICATES FEW OR NO CLOUDS BELOW 12,000 FEET
WITH NO SIGNIFICANT WEATHER AND/OR OBSTRUCTIONS TO VISIBILITY

NCZ015>017-031-032-045>047-102-103-220800-
NORTH COAST

CITY           SKY/WX    TMP DP  RH WIND       PRES   REMARKS
EDENTON        PTCLDY    78  76  91 W3        29.98F
ELIZABETH CITY PTCLDY    77  76  96 W7        29.97F FOG
KITTY HAWK     MOSUNNY   79  76  90 CALM      29.96F
MANTEO         PTCLDY    79  75  89 CALM      29.98S

$$

NCZ045>047-081-094-103-104-220800-
CENTRAL COAST

CITY           SKY/WX    TMP DP  RH WIND       PRES   REMARKS
FRISCO         PTCLDY    79  79 100 W5        29.99F
SWANQUARTER      N/A     82 N/A N/A W5        29.94F

$$

NCZ095-097-098-100-101-220800-
SOUTHERN COAST

CITY           SKY/WX    TMP DP  RH WIND       PRES   REMARKS
BEAUFORT       MOCLDY    81  77  88 W6        30.00F
CEDAR ISLAND     N/A     79 N/A N/A SW1       30.03S
JACKSONVILLE   MOCLDY    77  74  90 CALM      30.01S
NEWPORT        NOT AVBL
PINEY ISLAND   MOSUNNY   80  78  94 SW6       29.99F
WILMINGTON     MOCLDY    77  74  90 CALM      30.02S


$$

NCZ011>013-027>030-043-044-078>080-089-090>093-098-220800-
COASTAL PLAIN

CITY           SKY/WX    TMP DP  RH WIND       PRES   REMARKS
AHOSKIE        MOCLDY    73  71  95 CALM      29.98F
CLINTON        PTCLDY    74  73  96 CALM      30.02S
ELIZABETHTOWN  PTCLDY    77  75  93 CALM      30.02F
GOLDSBORO      MOCLDY    76  76  98 CALM      29.99F
GREENVILLE     PTCLDY    77  73  88 CALM      30.01F
HAVELOCK       MOCLDY    78  74  87 SW5       30.02S
KENANSVILLE    PTCLDY    73  72  95 CALM      30.03S
KINSTON        PTCLDY    75  74  95 CALM      30.01F
NEW BERN       MOCLDY    80  74  81 W3        30.01S
RICHLANDS      PTCLDY    75  72  88 CALM      30.02S
ROANOKE RAPIDS NOT AVBL
ROCKY MOUNT    PTCLDY    75  73  93 CALM      30.00F FOG
WASHINGTON     MOCLDY    77  74  91 CALM      30.01S
WHITEVILLE     PTCLDY    76  74  91 CALM      30.02F

$$

AMZ130-135-150-152-154-156-158-170-250-252-270-ANZ085-086-088-633-658-670-220800-
MARINE OBSERVATIONS

STATION/POSITION TIME  TEMP    WIND        PRES    WAVE   SWELL
                       AIR SEA DIR/SP/G            HT/PER HT/PER
                 (UTC) (F)     (DEG/KT/KT) (MB)    (FT/S) (FT/S)
CHESAPEAKE LIGHT 0600   80     200/ 12/ 12 1015.3
BUOY 44014       0700   78 78  200/  6/  6 1014.4    2/ 6   2/ 6
DUCK             0700   81 78  240/  6/  8 1014.2
2E DUCK          0700                        N/A     2/ 8
OREGON INLET     0700   82 83  230/  6/  7 1014.9
BUOY 44095       0700      80                N/A     2/ 8
20E OREGON INLET NOT AVBL
HATTERAS CG      0700   81 82  240/  4/  5 1015.7
DIAMOND BUOY     0700   81     240/ 10/ 12 1015.1    2/ 8   2/ 8
CAPE LOOKOUT     0600   82     250/  8/ 10 1016.0
BEAUFORT LAB     0700   81 83  260/  3/  5 1015.7
30 SE NEW RIVER  0600   82 83  260/ 10/ 12 1015.8
5 SE WRIGHTSVILL 0700   77 83  280/ 10/ 10   N/A
BUOY 41002       0609   81 82  240/ 12/ 14 1017.8    2/ 5   2/ 7
BUOY 41004       0700   84 84  230/  8/ 10 1016.4    2/ 8   2/ 8

$$


USA.gov is the U.S. government's official web portal to all federal, state and local government web resources and services.